Weather History for KXSA - October, 2012

Change the Weather History Date:

Sunday, October 7, 2012

  Actual Average (KRIC) Record (KRIC)
Temperature  
Mean Temperature 53 °F 62 °F  
Max Temperature 58 °F 74 °F 95 °F (1941)
Min Temperature 47 °F 51 °F 33 °F (1935)
Degree Days  
Heating Degree Days 12 4  
Month to date heating degree days 25  
Since 1 July heating degree days 54  
Cooling Degree Days 0 2  
Month to date cooling degree days 16  
Year to date cooling degree days 1520  
Growing Degree Days 3 (Base 50)    
Moisture  
Dew Point 50 °F    
Average Humidity 89    
Maximum Humidity 100    
Minimum Humidity 58    
Precipitation  
Precipitation 0.00 in 0.10 in 1.86 in (1951)
Month to date precipitation 0.69  
Year to date precipitation 34.81  
Snow  
Snow 0.00 in 0.00 in 0.00 in (2002)
Month to date snowfall 0.0  
Since 1 July snowfall 0.0  
Snow Depth -    
Sea Level Pressure  
Sea Level Pressure 30.08 in    
Wind  
Wind Speed 3 mph (North)    
Max Wind Speed 8 mph    
Max Gust Speed -    
Visibility 9 miles    
Events Rain    
T = Trace of Precipitation, MM = Missing Value Source: NWS Daily Summary

Daily Weather History Graph

Daily Weather History Graph

Search for Another Location

Airport or City:

Trip Planner

Search our weather history database for the weather conditions in past years. The results will help you decide how hot, cold, wet, or windy it might be!

Date:

Astronomy

Oct. 07, 2012 Rise Set
Actual Time 7:09 AM EDT 6:40 PM EDT
Civil Twilight 6:42 AM EDT 7:07 PM EDT
Nautical Twilight 6:12 AM EDT 7:37 PM EDT
Astronomical Twilight 5:41 AM EDT 8:07 PM EDT
Moon 11:54 PM EDT (10/7) 1:40 PM EDT (10/7)
Length of Visible Light 12h 24m
Length of Day
11h 31m
Waning Gibbous, 56% of the Moon is Illuminated
Oct 7
Waning Gibbous
Oct 8
Last Quarter
Oct 15
New
Oct 21
First Quarter
Oct 29
Full

Hourly Weather History & Observations

Time (EDT) Temp. Dew Point Humidity Pressure Visibility Wind Dir Wind Speed Gust Speed Precip Events Conditions
12:15 AM 58.6 °F 45.5 °F 62% 30.04 in 10.0 mi North 4.6 mph - N/A   Mostly Cloudy
12:35 AM 58.3 °F 45.3 °F 62% 30.03 in 10.0 mi North 3.5 mph - N/A   Scattered Clouds
12:55 AM 58.1 °F 45.5 °F 63% 30.03 in 10.0 mi North 4.6 mph - N/A   Scattered Clouds
1:15 AM 58.3 °F 45.7 °F 63% 30.02 in 10.0 mi North 5.8 mph - N/A   Mostly Cloudy
1:35 AM 58.1 °F 46.0 °F 64% 30.03 in 10.0 mi North 3.5 mph - N/A   Overcast
1:55 AM 58.3 °F 46.0 °F 64% 30.03 in 10.0 mi North 8.1 mph - N/A   Overcast
2:15 AM 58.6 °F 44.6 °F 60% 30.03 in 10.0 mi NNE 4.6 mph - N/A   Mostly Cloudy
2:35 AM 57.9 °F 44.1 °F 60% 30.02 in 10.0 mi North 4.6 mph - N/A   Scattered Clouds
2:55 AM 57.9 °F 43.9 °F 60% 30.03 in 10.0 mi North 5.8 mph - N/A   Scattered Clouds
3:15 AM 58.3 °F 43.5 °F 58% 30.04 in 10.0 mi North 3.5 mph - N/A   Overcast
3:35 AM 58.1 °F 43.5 °F 58% 30.03 in 10.0 mi North 3.5 mph - N/A   Overcast
3:55 AM 58.1 °F 43.5 °F 58% 30.05 in 10.0 mi NW 3.5 mph - N/A   Overcast
4:15 AM 56.7 °F 45.7 °F 67% 30.08 in 10.0 mi WNW 4.6 mph - N/A Rain Rain
4:35 AM 52.3 °F 49.1 °F 89% 30.06 in 5.0 mi North 4.6 mph - N/A Rain Heavy Rain
4:55 AM 51.8 °F 50.0 °F 94% 30.08 in 7.0 mi WSW 3.5 mph - N/A Rain Rain
5:15 AM 51.6 °F 51.6 °F 100% 30.07 in 7.0 mi Calm Calm - N/A Rain Light Rain
5:35 AM 52.0 °F 52.0 °F 100% 30.06 in 10.0 mi Calm Calm - N/A Rain Light Rain
5:55 AM 52.3 °F 52.3 °F 100% 30.07 in 10.0 mi Calm Calm - N/A   Overcast
6:15 AM 52.0 °F 52.0 °F 100% 30.08 in 7.0 mi Calm Calm - N/A Rain Rain
6:35 AM 52.7 °F 52.7 °F 100% 30.07 in 10.0 mi Calm Calm - N/A Rain Rain
6:55 AM 52.2 °F 52.2 °F 100% 30.08 in 10.0 mi Calm Calm - N/A   Overcast
7:15 AM 52.7 °F 52.7 °F 100% 30.08 in 7.0 mi Calm Calm - N/A   Drizzle
7:35 AM 52.7 °F 52.7 °F 100% 30.08 in 10.0 mi Calm Calm - N/A   Overcast
7:55 AM 53.6 °F 52.7 °F 97% 30.08 in 10.0 mi NE 5.8 mph - N/A   Overcast
8:15 AM 53.6 °F 51.6 °F 93% 30.09 in 10.0 mi NE 6.9 mph - N/A   Light Drizzle
8:35 AM 53.1 °F 52.0 °F 96% 30.09 in 10.0 mi NNE 3.5 mph - N/A Rain Light Rain
8:55 AM 53.2 °F 51.4 °F 94% 30.09 in 10.0 mi NE 3.5 mph - N/A   Overcast
9:15 AM 53.6 °F 51.3 °F 92% 30.11 in 10.0 mi North 4.6 mph - N/A Rain Light Rain
9:35 AM 52.9 °F 51.6 °F 95% 30.13 in 10.0 mi Calm Calm - N/A   Drizzle
9:55 AM 52.2 °F 51.8 °F 99% 30.13 in 7.0 mi North 3.5 mph - N/A Rain Rain
10:15 AM 51.8 °F 50.7 °F 96% 30.11 in 4.0 mi NNE 3.5 mph - N/A Rain Light Rain
10:35 AM 51.8 °F 50.4 °F 95% 30.10 in 7.0 mi ENE 4.6 mph - N/A Rain Rain
10:55 AM 51.8 °F 51.6 °F 99% 30.11 in 7.0 mi Calm Calm - N/A Rain Light Rain
11:15 AM 52.0 °F 52.0 °F 100% 30.11 in 10.0 mi Calm Calm - N/A   Drizzle
11:35 AM 52.7 °F 52.7 °F 100% 30.11 in 10.0 mi NW 4.6 mph - N/A   Light Drizzle
11:55 AM 52.3 °F 52.3 °F 100% 30.11 in 10.0 mi North 3.5 mph - N/A   Overcast
12:15 PM 52.3 °F 51.8 °F 98% 30.09 in 10.0 mi North 4.6 mph - N/A   Overcast
12:35 PM 54.0 °F 52.9 °F 96% 30.09 in 10.0 mi North 4.6 mph - N/A   Overcast
12:55 PM 54.3 °F 52.5 °F 94% 30.09 in 10.0 mi North 5.8 mph - N/A   Overcast
1:15 PM 54.1 °F 51.4 °F 91% 30.08 in 10.0 mi North 4.6 mph - N/A   Overcast
1:35 PM 53.6 °F 50.9 °F 91% 30.07 in 10.0 mi North 4.6 mph - N/A   Overcast
1:55 PM 53.8 °F 49.8 °F 86% 30.06 in 10.0 mi NNE 5.8 mph - N/A   Overcast
2:15 PM 54.3 °F 49.1 °F 83% 30.05 in 10.0 mi NNE 4.6 mph - N/A   Overcast
2:35 PM 54.1 °F 49.3 °F 84% 30.05 in 10.0 mi North 4.6 mph - N/A   Overcast
2:55 PM 54.3 °F 50.0 °F 85% 30.05 in 10.0 mi North 3.5 mph - N/A   Overcast
3:35 PM 54.1 °F 49.3 °F 84% 30.04 in 10.0 mi NNE 4.6 mph - N/A   Overcast
3:55 PM 54.5 °F 50.0 °F 85% 30.03 in 10.0 mi Calm Calm - N/A   Overcast
4:15 PM 54.5 °F 50.2 °F 85% 30.03 in 10.0 mi NNE 4.6 mph - N/A   Overcast
4:35 PM 54.3 °F 49.8 °F 85% 30.03 in 10.0 mi North 3.5 mph - N/A   Overcast
4:55 PM 54.5 °F 50.4 °F 86% 30.03 in 10.0 mi Calm Calm - N/A   Overcast
5:15 PM 54.0 °F 50.5 °F 88% 30.05 in 10.0 mi NW 3.5 mph - N/A   Overcast
5:35 PM 53.8 °F 50.9 °F 90% 30.05 in 10.0 mi Calm Calm - N/A   Overcast
5:55 PM 53.8 °F 51.6 °F 92% 30.06 in 10.0 mi WNW 3.5 mph - N/A   Overcast
6:15 PM 53.6 °F 51.1 °F 91% 30.08 in 10.0 mi WNW 4.6 mph - N/A   Overcast
6:35 PM 53.6 °F 51.1 °F 91% 30.10 in 10.0 mi West 6.9 mph - N/A   Overcast
6:55 PM 52.7 °F 49.8 °F 90% 30.11 in 10.0 mi WNW 5.8 mph - N/A   Overcast
7:15 PM 51.8 °F 50.9 °F 97% 30.11 in 7.0 mi NW 4.6 mph - N/A   Drizzle
7:35 PM 51.3 °F 51.3 °F 100% 30.13 in 5.0 mi WNW 4.6 mph - N/A   Light Drizzle
7:55 PM 50.9 °F 50.9 °F 100% 30.13 in 4.0 mi NE 4.6 mph - N/A   Drizzle
8:15 PM 50.5 °F 50.5 °F 100% 30.14 in 5.0 mi NW 3.5 mph - N/A   Drizzle
8:35 PM 50.7 °F 50.7 °F 100% 30.13 in 7.0 mi Calm Calm - N/A   Light Drizzle
8:55 PM 50.9 °F 50.9 °F 100% 30.14 in 10.0 mi Calm Calm - N/A   Overcast
9:15 PM 50.7 °F 50.7 °F 100% 30.14 in 10.0 mi Calm Calm - N/A   Overcast
9:55 PM 50.7 °F 50.7 °F 100% 30.15 in 10.0 mi NNW 3.5 mph - N/A   Overcast
10:15 PM 50.2 °F 50.2 °F 100% 30.16 in 10.0 mi Calm Calm - N/A   Overcast
10:35 PM 49.5 °F 49.5 °F 100% 30.16 in 10.0 mi Calm Calm - N/A   Scattered Clouds
10:55 PM 48.7 °F 48.7 °F 100% 30.16 in 10.0 mi Calm Calm - N/A   Clear
11:15 PM 48.4 °F 48.4 °F 100% 30.17 in 10.0 mi Calm Calm - N/A   Clear
11:35 PM 48.2 °F 48.2 °F 100% 30.17 in 10.0 mi Calm Calm - N/A   Clear
11:55 PM 47.8 °F 47.8 °F 100% 30.17 in 7.0 mi Calm Calm - N/A   Clear